Location: Unspecified
(48.2082°N, 0.0000°E)
Time: 18:01:54
(UTC+00:00)

Transit 4A - Pass Details

Date: 24 June 2019
Orbit: 862 x 982 km, 66.8° (Epoch: 15 July)

Event Time Altitude Azimuth Distance (km) Brightness Sun altitude
Rises 18:18:58 0° 310° (NW) 3,680 12.4 14.6°
Reaches altitude 10° 18:23:19 10° 283° (WNW) 2,708 13.0 13.9°
Maximum altitude 18:25:41 12° 261° (W) 2,527 11.5 13.6°
Drops below altitude 10° 18:28:02 10° 238° (WSW) 2,675 10.9 13.2°
Sets 18:32:17 0° 210° (SSW) 3,585 11.1 12.5°
